Weather Roundup
Issued by NWS

Home | Current Version | Previous Version | Text Only | Print | Product List | Glossary On
Versions: 1 2 3 4 5 6 7 8 9 10 11 12 13 14 15 16 17 18 19 20 21 22 23 24 25 26 27 28 29 30 31 32 33 34 35 36 37 38 39 40 41 42 43 44 45 46 47 48 49 50
187
NZUS93 KARX 010210
HRRWXR

CURRENT HOURLY OBSERVATIONS ACROSS
MUCH OF THE UPPER MISSISSIPPI VALLEY
NATIONAL WEATHER SERVICE LA CROSSE WI
900 PM CDT SAT APR 30 2016


...SOUTHEAST MINNESOTA...


CITY           SKY/WX    TMP DP  RH WIND       PRES   REMARKS
ROCHESTER      LGT RAIN  43  39  86 E18G26    30.03R
ROCHESTER/MAYO CLOUDY    43  40  88 NE9G17    30.04R
WINONA         DRIZZLE   45  39  81 E13G22    30.06R
AUSTIN         DRIZZLE   43  37  81 E13G24    30.02R
ALBERT LEA     CLOUDY    43  43 100 E21       30.02R
DODGE CENTER   LGT RAIN  41  41 100 E16       30.03R
PRESTON        LGT RAIN  41  38  88 E9G16     30.02R
OWATONNA       LGT RAIN  45  39  81 E9        30.05R
FARIBAULT      CLOUDY    45  43  93 E7        30.06R
$$

...ELSEWHERE IN MINNESOTA...


CITY           SKY/WX    TMP DP  RH WIND       PRES   REMARKS
MINNEAPOLIS    CLOUDY    52  30  43 NE16G29   30.08R
INTNL FALLS    CLEAR     50  27  40 NE3       30.25R
DULUTH         CLOUDY    40  26  57 NE13      30.23S WCI  32
RED WING       CLOUDY    52  36  54 SE6       30.06R
REDWOOD FALLS  CLOUDY    49  40  71 E3        30.06R
MANKATO        CLOUDY    46  39  76 E13       30.06R
WORTHINGTON    LGT RAIN  42  40  92 NE18G25   30.03R
FAIRMONT       CLOUDY    45  34  65 NE16      30.03R
$$

...SOUTHWEST WISCONSIN...


CITY           SKY/WX    TMP DP  RH WIND       PRES   REMARKS
LA CROSSE      LGT RAIN  45  39  79 CALM      30.04R
PRAIRIE DU CHI DRIZZLE   44  41  89 NE5       30.00R
BOSCOBEL       LGT RAIN  45  45 100 E7        30.01R FOG
LONE ROCK      CLOUDY    46  40  79 NE10G22   30.01R
PLATTEVILLE    CLOUDY    44  42  91 NE16G26   29.96R
FORT MC COY    LGT RAIN  44  38  80 E8        30.05S
CAMP DOUGLAS   DRIZZLE   43  43 100 NE9       30.04S
MAUSTON-NEW LI RAIN      44  40  86 NE3       30.03F
VIROQUA        CLOUDY    43  40  90 NE13      30.02R
WIS DELLS      DRIZZLE   43  41  92 NE13      30.02S
$$

...ELSEWHERE IN WISCONSIN...


CITY           SKY/WX    TMP DP  RH WIND       PRES   REMARKS
MILWAUKEE      RAIN      42  40  92 N15       30.01F FOG
MADISON        CLOUDY    44  39  82 NE16      30.00R
GREEN BAY      LGT RAIN  49  36  61 NE21G31   30.08F
EAU CLAIRE     CLOUDY    50  34  54 SE9       30.06R
BLACK RVR FLS  LGT RAIN  44  40  86 E9        30.06S
MEDFORD        CLOUDY    48  35  61 E6        30.07S
WAUSAU         CLOUDY    52  33  48 E6        30.06S
WIS RAPIDS     LGT RAIN  47  32  56 E14G24    30.07S
MARSHFIELD     CLOUDY    50  32  50 E9        30.05S
RICE LAKE      CLOUDY    46  32  56 N21       30.11S
$$

...NORTHEAST IOWA...


CITY           SKY/WX    TMP DP  RH WIND       PRES   REMARKS
WATERLOO       CLOUDY    44  41  89 NE22G29   29.94R
DUBUQUE        CLOUDY    43  41  93 NE17      29.94R
DECORAH        CLOUDY    43  43 100 E13G22    29.99R FOG
MASON CITY     CLOUDY    43  40  89 NE22G29   29.99S
CHARLES CITY   CLOUDY    45  43  93 E28G35    29.97S
OELWEIN        CLOUDY    43  43 100 NE21G29   29.94S
$$

...ELSEWHERE IN IOWA...


CITY           SKY/WX    TMP DP  RH WIND       PRES   REMARKS
DES MOINES     DRIZZLE   48  44  86 E13G23    29.86R FOG
IOWA CITY      CLOUDY    46  44  93 NE13      29.91R FOG
FORT DODGE     CLOUDY    45  39  81 NE18G25   29.94R
MARSHALLTOWN   CLOUDY    45  42  89 E22G28    29.90R
CEDAR RAPIDS   CLOUDY    45  44  97 E24G32    29.89R
$$

...NORTHERN ILLINOIS...


CITY           SKY/WX    TMP DP  RH WIND       PRES   REMARKS
CHICAGO-OHARE  LGT RAIN  45  44  97 NE15      29.93S FOG
CHICAGO-MIDWAY LGT RAIN  46  43  89 NE18      29.92R FOG
MOLINE         CLOUDY    47  43  86 E17       29.89R
ROCKFORD       LGT RAIN  45  42  89 NE16G23   29.95F
PEORIA         CLOUDY    51  50  96 NE13      29.85R
$$

NOTE: "FAIR" INDICATES FEW OR NO CLOUDS BELOW 12,000 FEET WITH NO
SIGNIFICANT WEATHER AND/OR OBSTRUCTIONS TO VISIBILITY. WIND
SPEEDS ARE IN MILES-PER-HOUR.




USA.gov is the U.S. government's official web portal to all federal, state and local government web resources and services.